Weather in Makiivka

Ukraine / Luhansk Region     49°13′11″N   37°59′00″E
temp.,
°C
wind,
m/s
gust,
m/s
humid.,
%
clouds,
%
prec.,
mm/h
press.,
hPa
HPBL,
m
15 may, sat
sat1500:00+15sw35800 0.0 101173
03:00+14w33850 0.0 101226
06:00+14sw2480100 0.0 101379
09:00+19w23600 0.0 1013403
12:00+23sw3346100 0.0 10141214
15:00+24sw364422 0.0 10132139
18:00+24ssw245298 0.0 1013200
21:00+18wnw2264100 0.0 101316
16 may, sun
sun1600:00+16n337299 0.0 101422
03:00+15ne33762 0.0 101432
06:00+15ne34786 0.0 101482
09:00+21ene45659 0.0 1013511
12:00+25ne555833 0.0 10121314
15:00+27e565268 1.1 10101796
18:00+24e4856100 0.0 1010244
21:00+19ene467066 0.0 100983
17 may, mon
mon1700:00+17ene411735 0.0 1008182
03:00+16e5127544 0.0 1007194
06:00+15ese5146968 0.0 1008294
09:00+20ese7145493 0.0 1007689
12:00+25se7944100 0.0 10071092
15:00+27sse564313 0.0 10071548
18:00+25se47595 0.0 1006291
21:00+20sse4975100 0.0 1007173
18 may, tue
tue1800:00+17s5119440 0.0 1007303
03:00+17s6109498 0.2 1008341
06:00+16s3795100 0.1 1009292
09:00+20ssw4575100 0.1 1010830
12:00+23ssw575385 0.0 10101741
15:00+21sw4861100 0.0 1010296
18:00+20s386578 0.0 1010208
21:00+17ssw36702 0.0 1011112
19 may, wed
wed1900:00+15s41183100 0.1 1011256
03:00+14ssw411915 0.1 1011282
06:00+14ssw499331 0.0 1012279
09:00+19ssw5770100 0.0 1012655
12:00+23ssw5759100 0.0 10121340
15:00+24ssw4751100 0.0 10112056
18:00+23s59639 0.3 1011607
21:00+18sse41174100 0.3 1011217